SCP
0 0 0 0 0 0 0 0 0 0 0 0 0 0 0 0 0 1 1 1 1 1 1 1 1 1 0 0 0 0 0 0 0 0 0 0 0 0 0 0 0 0 0 0
0 0 0 0 0 0 0 0 0 0 0 0 0 0 0 0 0 0 1 1 1 1 1 1 1 1 0 0 0 0 0 0 0 0 0 0 0 0 0 0 0 0 0 0
0 0 0 0 0 0 0 0 0 0 0 0 0 0 0 0 0 0 0 1 1 1 1 1 1 1 0 0 0 0 0 0 0 0 0 0 0 0 0 0 0 0 0 0
0 0 0 -0 -0 0 0 0 0 0 0 0 0 0 0 0 0 0 0 0 1 1 1 0 0 0 0 0 0 0 0 0 0 0 0 0 0 0 0 0 0 0 0 0
0 0 0 0 0 0 0 0 0 0 0 0 0 0 0 0 0 0 0 0 0 0 0 0 0 0 0 0 0 0 0 0 0 0 0 0 0 0 0 0 0 0 0 0
0 0 0 0 0 0 0 0 0 0 0 0 0 0 0 0 0 0 0 0 0 0 0 0 0 0 0 0 0 0 0 0 0 0 0 0 0 0 0 0 0 0 0 0
0 0 0 0 0 0 0 0 0 0 0 0 0 0 0 0 0 0 0 0 0 0 0 0 0 0 0 0 0 0 0 0 0 0 0 0 0 0 0 0 0 0 0 0
0 0 0 0 0 0 0 0 0 0 0 0 0 0 0 0 0 0 0 0 0 0 0 0 0 0 0 0 0 0 0 0 0 0 0 0 0 0 0 0 0 0 0 0
0 0 0 0 0 0 0 0 0 0 0 0 0 0 0 0 0 0 0 0 0 0 0 0 0 0 0 0 0 0 0 0 0 0 0 0 0 0 0 0 0 0 0 0
0 0 0 0 0 0 0 0 0 0 0 0 0 0 0 0 0 0 0 0 0 0 0 0 0 0 0 0 0 0 0 0 0 0 0 0 0 0 0 0 0 0 0 0
0 0 0 0 0 0 0 0 0 0 0 0 0 0 0 0 0 0 0 0 0 0 0 0 0 0 0 0 0 0 0 0 0 0 0 0 0 0 0 0 0 0 0 0
0 0 0 0 0 0 0 0 0 0 0 0 0 0 0 0 0 0 0 0 0 0 0 0 0 0 0 0 0 0 0 0 0 0 0 0 0 0 0 0 0 0 0 0
0 0 0 0 0 0 0 0 0 0 0 0 0 0 0 0 0 0 0 0 0 0 0 0 0 0 0 0 0 0 0 0 0 0 0 0 0 0 0 0 0 0 0 0
0 0 0 0 0 0 0 0 0 0 0 0 0 0 0 0 0 0 0 0 0 0 0 0 0 0 0 0 0 0 0 0 0 0 0 0 0 0 0 0 0 0 0 0
0 0 0 0 0 0 0 0 0 0 0 0 0 0 0 0 0 0 0 0 0 0 0 0 0 0 0 0 0 0 0 0 0 0 0 0 0 0 0 0 0 0 0 0
0 0 0 0 0 0 0 0 0 0 0 0 0 0 0 0 0 0 0 0 0 0 0 0 0 0 0 0 0 0 0 0 0 0 0 0 0 0 0 0 0 0 0 0
0 0 0 0 0 0 0 0 0 0 0 0 0 0 0 0 0 0 0 0 0 0 0 0 0 0 0 0 0 0 0 0 0 0 0 0 0 0 0 0 0 0 0 0
0 0 0 0 0 0 0 0 0 0 0 0 0 0 0 0 0 0 0 0 0 0 0 0 0 0 0 0 0 0 0 0 0 0 0 0 0 0 0 0 0 0 0 0
0 0 0 0 0 0 0 0 0 0 0 0 0 0 0 0 0 0 0 0 0 0 0 0 0 0 0 0 0 0 0 0 0 0 0 0 0 0 0 0 0 0 0 0
0 0 0 0 0 0 0 0 0 0 0 0 0 0 0 0 0 0 0 0 0 0 0 0 0 0 0 0 0 0 0 0 0 0 0 0 0 0 0 0 0 0 0 0
0 0 0 0 0 0 0 0 0 0 0 0 0 0 0 0 0 0 0 0 0 0 0 0 0 0 0 0 0 0 0 0 0 0 0 0 0 0 0 0 0 0 0 0
0 0 0 0 0 0 0 0 0 0 0 0 0 0 0 0 0 0 0 0 0 0 0 0 0 0 0 0 0 0 0 0 0 0 0 0 0 0 0 0 0 0 0 0
0 0 0 0 0 0 0 0 0 0 0 0 0 0 0 0 0 0 0 0 0 0 0 0 0 0 0 0 0 0 0 0 0 0 0 0 0 0 0 0 0 0 0 0
0 0 0 0 0 0 0 0 0 0 0 0 0 0 0 0 0 0 0 0 0 0 0 0 0 0 0 0 0 0 0 0 0 0 0 0 0 0 0 0 0 0 0 0
0 0 0 0 0 0 0 0 0 0 0 0 0 0 0 0 0 0 0 0 0 0 0 0 0 0 0 0 0 0 0 0 0 0 0 0 0 0 0 0 0 0 0 0
0 0 0 0 0 0 0 0 0 0 0 0 0 0 0 0 0 0 0 0 0 0 0 0 0 0 0 0 0 0 0 0 0 0 0 0 0 0 0 0 0 0 0 0
Wind_Speed
4 4 4 7 7 5 3 3 6 8 4 2 5 4 5 6 7 8 9 9 10 10 8 7 8 9 9 8 8 8 8 7 7 5 5 4 3 3 2 2 4 5 5 5
3 4 8 5 4 4 4 4 6 8 2 2 2 3 3 6 8 8 9 10 10 9 7 8 9 9 10 10 9 8 9 8 7 5 4 4 4 3 2 2 3 4 5 5
7 6 4 4 4 4 4 5 6 5 3 3 2 3 3 3 3 4 6 7 8 10 11 10 10 10 10 10 9 9 9 9 8 7 5 5 4 3 2 2 2 3 5 5
5 6 4 4 5 5 5 6 6 4 1 2 1 4 7 3 3 5 6 7 8 8 9 9 10 10 11 10 9 9 9 9 8 8 8 9 6 5 4 3 3 3 4 5
7 4 5 6 7 6 6 1 1 1 3 1 1 2 8 1 5 8 8 8 8 8 9 10 11 11 10 10 9 9 9 8 8 8 9 8 6 4 4 4 5 4 3 4
5 3 4 6 3 3 3 4 6 5 5 0 3 3 8 5 7 6 7 9 8 9 9 9 9 8 8 9 9 9 9 8 8 9 9 9 9 8 8 6 5 4 2 2
3 3 3 3 1 1 4 5 4 5 4 5 2 3 10 7 6 7 9 9 9 9 9 10 10 10 9 10 10 10 10 9 9 9 9 9 10 10 10 8 7 6 4 3
3 5 3 3 6 5 4 8 7 4 5 5 2 6 9 4 3 4 6 7 8 8 9 10 11 10 10 11 10 10 10 9 9 9 8 8 9 7 6 7 6 6 5 4
6 6 3 1 2 7 5 3 5 7 2 2 5 7 9 2 2 3 5 7 8 9 9 10 10 11 11 11 11 11 11 10 10 9 8 8 8 8 7 7 6 5 4 5
8 3 3 2 4 4 4 7 6 6 5 3 5 5 6 5 4 4 7 9 9 9 9 9 10 10 10 10 9 9 10 10 9 10 9 8 8 8 8 7 7 6 6 6
5 4 2 1 2 4 4 4 5 4 4 5 3 8 7 7 6 7 9 9 10 10 10 10 9 9 9 9 9 9 9 8 8 9 8 9 8 7 8 7 8 7 6 7
3 6 2 3 2 0 3 6 7 6 5 5 4 10 5 4 4 6 7 8 9 10 10 9 9 9 9 9 9 9 9 9 9 9 8 9 8 8 8 8 7 7 7 7
5 6 3 4 4 1 1 3 4 5 5 5 5 9 3 1 1 3 5 7 8 9 9 9 9 9 10 10 10 9 9 9 9 9 9 9 8 9 9 8 7 7 7 7
5 4 6 8 7 4 3 3 4 6 5 5 8 8 6 3 3 4 5 6 8 9 10 10 10 10 10 10 10 10 10 9 10 10 10 10 9 9 9 8 8 8 8 8
4 3 3 4 4 4 4 5 7 7 8 8 8 8 9 6 6 6 6 6 8 9 11 12 12 11 10 10 10 10 10 10 11 11 11 10 9 8 8 8 8 7 8 8
3 3 2 2 3 3 3 5 7 8 6 7 6 9 7 4 2 3 5 7 9 10 12 13 13 12 12 13 12 11 11 11 11 11 11 9 9 9 9 9 8 8 8 7
2 4 3 3 1 1 4 6 7 5 5 6 8 9 3 2 3 4 6 8 10 11 11 13 14 14 14 13 13 13 12 11 11 11 10 10 10 10 10 10 9 9 8 7
6 5 3 2 1 5 7 2 2 3 4 4 4 4 3 4 3 2 3 6 7 8 10 11 12 12 11 11 11 11 11 11 12 11 11 11 11 11 10 9 10 9 7 7
3 6 4 3 3 5 4 1 1 2 4 2 3 4 4 3 2 2 1 3 6 7 8 9 10 10 10 11 12 11 12 12 12 12 12 12 12 11 11 11 10 8 7 7
4 4 4 3 3 5 4 1 1 2 3 1 1 4 3 1 0 3 3 1 2 2 4 6 7 8 9 10 11 12 13 13 14 14 13 12 12 12 12 12 10 7 7 8
2 2 2 3 3 6 3 2 0 3 4 2 2 2 1 1 3 4 5 3 1 1 2 4 6 7 8 9 11 12 12 14 13 11 10 10 11 11 11 9 8 7 7 7
4 3 3 3 3 6 2 1 2 3 2 2 3 2 1 1 2 3 3 3 1 1 2 4 5 5 5 8 10 11 12 11 8 9 10 10 10 10 9 8 8 8 8 8
3 4 4 5 5 3 2 2 3 1 2 3 3 4 2 1 2 3 3 3 2 2 2 3 5 5 4 6 8 10 9 7 8 8 9 9 9 8 7 9 9 7 7 7
2 1 1 2 4 3 3 2 2 1 2 3 3 3 2 0 1 3 3 4 4 4 3 4 5 5 4 4 5 5 5 6 8 9 8 7 8 7 6 6 7 7 7 7
2 1 1 3 3 3 3 2 2 3 3 3 3 2 2 2 3 4 5 5 4 5 5 5 5 5 4 3 3 3 4 7 7 7 6 6 6 7 6 6 6 7 7 8
2 3 3 4 3 1 2 2 2 3 4 3 3 4 4 5 5 6 6 5 5 6 6 6 6 6 5 4 4 3 3 6 7 6 5 5 4 5 5 5 3 3 4 6
Wind_Direction
138 112 192 204 192 197 209 245 270 272 262 216 244 243 214 182 186 189 186 185 186 193 185 173 172 167 163 163 164 163 157 156 152 149 153 149 149 141 136 157 149 144 140 137
84 234 222 194 187 198 217 262 276 290 316 164 249 278 220 196 201 197 192 192 191 183 174 178 176 174 174 176 173 170 167 162 163 162 156 144 136 136 136 134 132 140 141 142
184 224 185 181 209 213 235 222 246 256 331 42 80 315 259 221 202 190 191 191 188 188 185 180 174 178 180 183 182 178 172 167 163 157 135 121 104 92 103 120 130 143 142 138
222 241 209 219 235 197 259 236 226 228 179 290 107 275 277 230 218 209 201 196 195 190 185 182 179 181 184 186 181 176 174 168 162 157 153 153 153 157 167 156 143 134 134 135
225 206 187 212 227 188 221 252 122 145 143 59 358 206 280 250 237 228 210 202 199 189 184 185 187 185 182 180 179 178 174 171 162 162 163 159 152 144 131 128 129 126 120 131
231 221 197 206 221 191 173 73 56 50 73 272 237 191 271 230 219 217 203 200 196 186 183 183 183 180 179 175 174 168 169 171 165 165 168 166 158 149 145 145 147 142 126 120
287 270 237 184 198 13 113 93 33 4 11 253 249 218 251 245 216 205 201 196 189 184 179 178 177 180 179 174 170 165 167 168 167 167 169 170 167 162 162 160 159 154 149 153
194 274 247 192 183 179 169 142 157 193 224 272 283 241 255 249 220 209 193 178 174 179 179 181 181 179 177 170 167 166 167 167 167 168 169 168 165 164 163 163 161 165 167 165
179 243 293 237 165 143 138 155 158 134 157 261 274 279 296 244 230 195 170 164 177 181 181 181 177 175 174 172 171 172 170 168 170 170 165 165 166 164 163 162 158 160 158 156
158 207 287 296 79 45 127 141 105 123 151 247 283 274 257 256 224 190 185 183 183 178 177 177 176 176 175 171 167 168 168 170 168 168 170 171 171 168 163 159 162 164 163 155
139 160 291 29 159 173 113 107 113 119 153 164 250 269 233 225 211 194 196 190 180 177 177 177 176 173 168 163 165 169 166 160 165 169 168 165 168 165 161 165 169 167 163 160
138 130 203 264 282 261 170 165 148 154 204 180 187 265 282 226 209 195 194 186 180 178 174 173 170 165 164 165 169 173 170 168 170 167 163 164 162 161 164 169 170 166 166 168
131 116 90 348 339 343 132 158 154 132 129 161 180 260 313 36 198 201 193 185 179 173 167 165 166 170 172 171 173 174 172 171 166 162 163 162 164 168 172 173 168 166 167 166
111 119 163 193 215 201 199 190 163 139 156 197 219 249 284 283 244 231 208 191 182 178 175 173 174 177 177 176 174 173 174 168 165 164 167 171 175 176 175 171 169 171 170 170
103 146 204 227 224 186 201 205 189 193 192 196 228 237 257 251 228 220 206 188 184 182 182 184 183 181 178 176 176 176 174 170 169 169 176 181 177 172 168 170 174 173 175 181
87 143 164 265 240 213 238 233 216 220 215 222 244 261 258 258 224 204 198 190 193 195 191 189 188 184 183 183 181 179 178 175 171 178 184 178 172 174 178 179 177 177 181 180
123 134 145 236 273 90 254 233 214 210 209 197 222 244 274 271 235 216 205 197 198 197 192 190 191 192 189 186 182 183 182 174 177 184 183 178 178 183 185 183 179 184 186 182
140 133 145 178 128 222 239 256 212 214 245 227 236 262 262 244 253 238 209 200 207 200 194 193 193 194 191 184 181 179 172 174 181 185 185 182 183 186 183 181 187 190 185 187
141 139 135 145 198 270 288 289 186 200 265 251 245 270 288 299 339 328 259 207 211 204 198 195 192 190 184 183 178 171 175 179 184 190 191 188 187 186 184 190 194 191 185 193
68 100 123 145 180 232 244 281 291 141 272 287 270 280 306 13 9 290 321 301 265 221 192 187 178 172 177 182 171 173 181 184 193 196 196 190 186 187 191 196 194 187 188 198
64 77 145 177 216 259 260 292 326 189 246 302 297 283 281 203 221 286 312 302 275 219 189 167 161 170 182 173 167 178 185 197 200 192 187 185 188 192 194 191 187 182 188 192
177 167 190 167 201 251 308 18 206 230 290 308 311 306 290 264 298 322 322 325 5 59 128 151 161 172 164 159 166 178 193 198 184 177 180 185 187 191 192 186 187 184 185 192
193 194 190 194 221 258 295 258 267 250 285 299 302 308 310 317 338 351 1 7 32 56 103 134 149 144 137 156 168 185 195 173 164 173 184 187 185 187 184 185 188 184 188 197
280 172 170 269 276 293 304 299 324 312 267 295 308 315 333 19 19 19 18 29 38 47 79 104 114 121 126 148 168 185 171 162 164 175 180 175 174 177 177 182 187 190 193 198
257 185 201 256 279 333 351 349 352 355 357 4 1 16 39 64 53 50 45 41 47 54 63 86 103 108 107 112 123 125 146 153 161 168 168 165 167 172 177 184 189 193 201 198
229 202 203 235 244 224 287 339 15 30 14 8 35 47 47 63 64 59 56 52 60 63 67 76 79 80 80 84 81 75 114 141 148 153 155 158 160 163 171 176 175 179 180 183